Location: Godzisko
(49.9648°N, 19.4576°E)
Time: 05:42:30
(UTC+00:00)

NOSS 3-4 (C) - Pass Details

Date: 20 April 2021
Orbit: 873 x 1339 km, 63.4° (Epoch: 27 April)

Event Time Altitude Azimuth Distance (km) Brightness Sun altitude
Rises 02:31:56 0° 314° (NW) 3,837 6.5 -10.6°
Reaches altitude 10° 02:34:39 10° 306° (NW) 2,948 5.8 -10.2°
Maximum altitude 02:41:01 38° 242° (WSW) 1,727 4.3 -9.3°
Drops below altitude 10° 02:48:00 10° 178° (S) 3,232 6.0 -8.3°
Sets 02:51:08 0° 171° (S) 4,249 6.6 -7.9°
